User: anonymous   Login
Location: Ostrava
(49.8330°N, 18.2830°E)
Time: 16:09:54
(UTC+02:00)
Language:

Explorer 7 - Orbit

View from above orbital plane
View from above orbital plane
View from above satellite
View from above satellite

Ground track
Ground track

The orbit data is extracted from the following two-line orbital elements,

1    22U 59009A   17178.90148763 +.00000188 +00000-0 +38060-4 0  9997
2    22 050.2828 152.0591 0141952 073.9857 287.6673 14.94135870062958
Epoch (UTC): 27 June 2017 21:38:08
Eccentricity: 0.0141952
inclination: 50.2828°
perigee height: 486 km
apogee height: 684 km
right ascension of ascending node: 152.0591°
argument of perigee: 73.9857°
revolutions per day: 14.94135870
mean anomaly at epoch: 287.6673°
orbit number at epoch: 6295

The dashed part of the orbit path shows where the satellite is in the earth's shadow,  

DLR